Flag for Finland Weather past 2 weeks in Rovaniemi, Finland

Now
48 °F

Fog.


Feels Like: 47 °F
Forecast: 43 / 54 °F
Wind: 3 mph from East

Location: Rovaniemi Airport

Current Time: Sep 19, 2014 at 9:59:17 PM

Latest Report: Sep 19, 2014 at 9:20 PM


Visibility: 0 mi

Pressure: 29.98 "Hg

Humidity: 100%

Dew point: 48 °F

Location of RovaniemiLocation

Historic Weather in Rovaniemi — Graph

°F

Rovaniemi temperature yesterday

Maximum temperature yesterday: 55 °F (at 3:50 PM)
Minimum temperature yesterday: 43 °F (at 6:20 AM)
Average temperature yesterday: 49 °F

Past Weeks' High & Low Weather Summary

 TemperatureHumidityPressure
High64 °F (Sep 9, 2:20 PM)100% (Sep 5, 11:50 PM)30.42 "Hg (Sep 5, 11:50 PM)
Low34 °F (Sep 16, 7:20 AM)38% (Sep 14, 5:20 PM)29.86 "Hg (Sep 9, 2:50 PM)
Average51 °F83%30.11 "Hg
* Reported Sep 4 8:20 PM — Sep 19 8:50 PM, Rovaniemi, Weather by CustomWeather, © 2014

Note: Actual official high and low records may vary slightly from our data, if they occured in-between our weather recording intervals... More about our weather records

Advertising

Rovaniemi weather history for previous 24 hours

 ConditionsComfort  
Time TempWeatherWind HumidityBarometerVisibility
8:50 PM
Sep 19
48 °FFog.5 mph100%29.98 "Hg2 mi
8:20 PM48 °FFog.3 mph100%29.98 "Hg3 mi
7:50 PM48 °FFog.3 mph100%29.98 "Hg2 mi
7:20 PM48 °FFog.3 mph100%29.98 "Hg3 mi
6:50 PM48 °FLight rain. Mostly cloudy.2 mph100%29.98 "Hg3 mi
6:20 PM50 °FLight rain. Broken clouds.3 mph94%29.98 "Hg4 mi
5:50 PM50 °FLight rain. Cloudy.3 mph100%29.98 "Hg4 mi
5:20 PM50 °FLight rain. Mostly cloudy.3 mph100%29.98 "Hg4 mi
4:50 PM50 °FLight rain. Broken clouds.3 mph100%29.98 "Hg5 mi
4:20 PM50 °FLight rain. Cloudy.3 mph100%30.01 "Hg4 mi
3:50 PM50 °FLight rain. More clouds than sun.2 mph100%30.01 "Hg6 mi
3:20 PM50 °FLight rain. Low clouds.5 mph100%30.01 "Hg6 mi
2:50 PM50 °FSprinkles. More clouds than sun.3 mph100%30.01 "HgN/A
2:20 PM52 °FSprinkles. Broken clouds.5 mph88%30.01 "HgN/A
1:50 PM52 °FLight rain. Partly sunny.3 mph88%30.01 "HgN/A
1:20 PM50 °FLight rain. Broken clouds.3 mph94%30.01 "Hg4 mi
12:50 PM50 °FBroken clouds.2 mph94%30.01 "HgN/A
12:20 PM48 °FBroken clouds.3 mph100%30.01 "HgN/A
11:50 AM48 °FPartly sunny.3 mph100%30.01 "Hg5 mi
11:20 AM48 °FBroken clouds.2 mph94%30.01 "Hg4 mi
10:50 AM46 °FLight rain. Partly sunny.3 mph100%30.01 "Hg4 mi
10:20 AM46 °FLight rain. Broken clouds.2 mph100%30.01 "Hg4 mi
9:50 AM46 °FLight rain. Partly sunny.2 mph100%30.01 "Hg4 mi
9:20 AM46 °FBroken clouds.2 mph93%30.01 "Hg5 mi
8:50 AM45 °FPartly sunny.3 mph100%30.01 "Hg4 mi
8:20 AM45 °FPartly sunny.3 mph100%30.01 "Hg4 mi
7:50 AM45 °FPartly sunny.3 mph100%30.01 "Hg4 mi
7:20 AM45 °FPartly cloudy.2 mph100%30.04 "HgN/A
6:50 AM45 °FFog.2 mph100%30.04 "Hg3 mi
6:20 AM45 °FFog.3 mph100%30.04 "Hg1 mi
5:50 AM45 °FPassing clouds.2 mph100%30.04 "Hg3 mi
5:20 AM45 °FFog.5 mph100%30.04 "Hg2 mi
4:50 AM45 °FFog.3 mph100%30.07 "Hg3 mi
4:20 AM45 °FSprinkles. Partly cloudy.3 mph100%30.07 "Hg4 mi
3:50 AM45 °FSprinkles. Passing clouds.5 mph100%30.07 "Hg5 mi
3:20 AM45 °FLight rain. Partly cloudy.5 mph93%30.07 "Hg4 mi
2:50 AM45 °FPassing clouds.3 mph93%30.09 "Hg6 mi
2:20 AM45 °FPassing clouds.2 mph93%30.09 "Hg3 mi
1:50 AM45 °FMostly cloudy.3 mph93%30.09 "Hg5 mi
1:20 AM45 °FPassing clouds.3 mph93%30.09 "HgN/A
12:50 AM45 °FPartly cloudy.2 mph93%30.12 "HgN/A
12:20 AM46 °FPartly cloudy.2 mph87%30.12 "HgN/A
11:50 PM
Sep 18
46 °FOvercast.2 mph87%30.12 "HgN/A
11:20 PM46 °FPartly cloudy.7 mph87%30.12 "HgN/A
10:20 PM46 °FClear.7 mph87%30.12 "Hg10 mi
9:50 PM46 °FPartly cloudy.6 mph87%30.15 "HgN/A
9:20 PM46 °FPassing clouds.7 mph87%30.15 "HgN/A
Weather by CustomWeather, © 2014

See weather overviewHow to use our weather pages